Wind_Speed
22 21 21 22 22 22 22 21 20 20 19 18 17 16 14 13 12 10 9 8 7 5 4 3 2 2 2 2 3 3 2 2 2 3 3 3 4 4 5 5 6 7 8
24 23 22 22 22 22 23 23 22 21 21 21 20 18 17 16 14 13 11 10 9 8 6 5 4 4 4 4 4 4 4 4 4 4 4 4 4 5 5 6 6 7 8
26 25 24 24 23 23 23 24 24 23 23 23 22 21 20 18 17 16 14 13 12 10 9 8 7 6 5 5 5 5 5 5 5 5 5 5 5 6 6 7 7 8 8
28 27 26 26 25 24 24 24 24 25 25 24 24 23 22 21 19 18 17 16 14 13 12 10 9 8 7 7 7 7 7 6 6 6 6 6 7 7 7 8 8 9 9
31 30 29 28 27 27 26 26 25 26 26 26 26 25 25 23 22 21 19 18 17 16 15 13 12 11 10 9 9 9 8 8 8 8 8 8 8 8 8 9 9 10 10
34 33 32 31 30 29 29 29 28 27 27 27 27 27 27 26 24 23 22 20 19 18 17 16 15 13 12 12 11 10 10 10 10 10 9 10 10 9 10 10 10 11 11
38 37 35 34 32 31 31 31 30 30 29 29 29 29 29 28 27 26 24 23 21 20 19 18 17 16 15 14 13 13 12 12 12 11 11 11 11 11 11 12 12 12 13
41 40 38 37 35 34 33 32 32 32 32 31 31 30 30 30 29 28 27 26 24 23 21 20 19 18 18 16 15 15 14 14 14 13 13 13 13 13 13 13 14 14 14
43 42 41 40 39 37 36 35 34 34 34 34 34 33 32 31 31 31 30 28 27 26 24 23 22 21 20 19 18 17 17 16 16 15 15 15 15 15 15 15 15 15 16
45 45 44 44 42 41 40 38 37 36 36 36 36 36 35 34 33 32 32 31 30 29 27 26 25 24 23 22 21 20 19 18 18 17 17 17 17 17 16 16 17 17 17
46 47 46 46 46 45 44 42 40 39 38 37 38 38 38 37 36 35 34 33 32 31 30 29 27 26 25 24 23 22 22 21 20 20 19 19 19 19 19 18 19 19 19
47 48 48 49 48 48 47 46 44 42 41 40 39 39 39 39 38 37 36 35 35 33 32 31 30 29 28 27 26 25 24 23 23 22 22 21 21 21 21 21 20 21 21
48 48 49 50 51 50 49 49 47 46 44 42 41 41 41 41 40 40 38 37 36 35 34 34 33 31 30 29 29 28 27 26 25 25 24 23 23 23 23 23 23 22 23
48 49 50 51 51 52 52 51 51 49 47 45 44 44 43 42 42 42 40 39 38 37 36 36 36 34 33 32 31 30 29 29 28 27 26 26 25 25 25 25 25 25 24
48 50 51 52 53 53 54 54 53 52 50 49 48 47 46 45 44 43 43 41 40 40 39 39 38 37 36 35 33 32 32 31 30 29 29 28 28 27 27 26 26 26 26
49 50 51 53 54 54 55 56 55 55 53 52 51 50 49 48 47 45 45 44 43 42 41 41 41 40 39 38 36 35 34 33 32 32 31 31 30 29 29 29 28 28 28
50 51 52 53 55 56 56 57 57 57 56 54 53 53 52 50 48 47 46 45 45 44 44 44 43 43 42 41 39 38 37 36 35 35 34 33 33 32 31 31 30 30 30
51 52 53 54 55 57 58 58 58 58 57 57 56 55 54 52 50 49 48 46 45 46 45 45 45 44 43 43 42 42 41 39 38 36 36 35 35 34 34 33 32 32 33
52 52 53 54 55 56 58 60 60 59 59 59 57 57 56 55 53 52 50 49 48 47 47 47 47 46 45 45 44 44 43 42 40 39 39 38 38 37 36 36 35 35 35
52 53 54 54 55 56 57 59 60 61 61 61 60 59 58 57 55 55 54 52 50 49 48 47 46 46 46 46 46 46 45 45 43 42 41 40 39 39 39 38 38 37 37
50 52 53 54 55 57 58 59 60 60 61 62 62 61 60 59 58 57 57 55 53 51 50 48 47 47 47 47 47 47 46 45 44 42 42 41 41 40 40 40 39 39 40
50 51 52 54 55 57 58 58 59 60 60 61 62 62 63 62 61 60 59 57 55 53 52 50 49 49 47 47 47 47 47 46 45 45 44 43 42 42 41 41 41 41 41
46 47 48 50 53 55 57 59 59 60 61 61 61 62 62 62 62 61 60 58 56 55 54 52 51 50 49 48 48 47 46 45 45 46 45 44 43 42 41 42 43 43 43
39 41 43 45 48 50 53 55 57 59 60 60 60 60 61 61 61 61 61 60 58 56 55 53 52 51 50 48 48 48 47 47 46 45 44 44 44 43 43 44 44 44 44
33 35 37 40 43 45 48 50 52 54 56 58 59 59 59 60 60 60 60 60 60 58 56 54 53 53 51 50 49 48 47 47 46 47 46 46 46 46 46 46 46 45 45
26 29 33 35 38 40 42 44 46 48 51 54 56 57 57 57 59 59 59 59 60 59 57 55 55 54 51 50 50 49 50 50 49 49 48 47 48 48 48 47 46 46 46
Wind_Direction
247 247 246 247 247 247 245 245 244 245 245 244 244 244 243 240 239 238 235 233 230 230 227 225 219 215 218 220 218 221 232 242 254 266 280 294 308 321 330 338 342 345 349
248 247 247 247 247 247 246 245 244 244 245 245 245 245 245 244 242 241 240 238 236 236 234 233 233 228 228 229 230 234 239 245 251 258 270 282 293 304 312 320 326 331 337
249 249 248 247 247 247 247 247 246 245 245 246 246 246 246 246 245 243 242 241 240 240 238 237 237 235 233 233 235 239 243 246 250 257 266 275 284 292 299 306 313 319 325
248 249 248 248 247 247 247 248 248 247 246 246 246 246 246 246 247 245 244 243 242 242 241 239 239 238 240 239 238 240 244 246 251 257 263 269 276 284 290 297 305 311 315
247 248 249 248 248 247 247 247 248 249 248 247 247 247 246 246 247 247 246 244 244 243 242 241 242 242 242 244 243 243 245 247 250 255 260 265 271 278 284 291 297 303 307
246 247 248 248 248 247 247 248 248 249 250 249 248 248 248 247 247 247 247 246 245 244 244 243 243 243 244 245 245 246 246 247 249 253 258 263 268 273 278 284 290 295 300
246 246 247 248 248 248 248 248 248 249 249 250 250 249 249 249 248 248 247 248 248 246 245 245 244 243 244 245 246 246 247 247 248 252 256 260 265 270 275 280 285 290 295
245 245 246 247 247 247 248 248 248 248 249 250 250 249 249 248 248 248 248 248 248 248 247 246 246 244 244 245 246 247 247 248 249 250 254 258 262 267 272 276 281 286 291
245 245 246 246 247 248 248 248 247 247 248 249 249 249 248 248 248 248 248 248 248 249 248 247 247 246 246 246 247 248 249 249 250 251 254 257 260 264 269 274 278 283 288
245 245 246 246 247 247 248 248 247 247 247 247 248 248 248 248 247 247 247 247 247 248 248 247 248 248 247 247 248 249 249 250 251 252 254 256 259 262 267 272 275 279 284
245 245 245 246 246 247 247 247 247 246 246 247 247 248 248 248 248 247 247 247 247 248 248 248 248 248 248 248 248 249 250 251 252 253 254 256 259 261 265 269 273 277 281
246 246 245 245 246 246 247 247 247 246 245 245 246 247 248 248 249 248 247 247 247 247 248 248 248 248 248 248 248 249 250 251 253 254 255 256 258 260 263 267 271 275 279
247 247 246 246 246 246 246 246 246 245 244 244 245 246 247 248 249 249 249 248 248 248 247 248 249 249 249 249 250 250 250 252 253 254 255 257 258 260 263 266 270 273 278
249 249 248 247 246 246 245 245 244 243 243 243 243 245 246 247 248 248 248 248 248 248 248 248 249 250 250 250 250 250 251 252 253 254 255 257 259 261 263 265 268 271 275
251 250 250 248 247 246 245 244 243 242 243 242 242 244 245 246 247 247 247 248 248 249 249 249 249 250 250 251 251 251 251 252 254 255 256 258 259 260 263 265 268 271 274
252 251 250 249 248 247 246 244 242 242 242 242 242 243 244 244 245 247 247 247 248 248 248 249 250 250 250 251 252 252 252 253 254 255 257 258 259 261 263 265 267 270 273
254 252 251 250 249 248 246 245 243 241 241 241 242 243 243 243 243 244 246 246 247 248 248 249 250 250 251 252 253 253 253 253 254 255 257 258 260 262 263 265 268 269 272
255 254 253 252 250 249 247 245 243 242 241 241 241 242 243 242 242 243 244 245 246 248 249 249 250 250 252 252 253 254 254 255 255 256 257 258 260 262 263 265 267 269 272
255 254 254 253 251 249 247 245 243 243 242 241 241 241 241 242 242 242 243 244 245 247 249 250 250 251 252 253 254 254 254 255 256 257 258 260 261 263 264 265 267 269 272
256 255 254 253 251 250 248 246 244 243 242 242 241 240 240 241 242 242 241 243 245 246 248 250 250 252 253 254 254 254 255 255 256 257 259 260 262 263 264 265 267 269 271
257 255 254 252 251 249 248 247 245 244 242 242 240 240 240 241 241 241 241 241 243 244 245 247 249 251 253 254 255 255 256 255 257 258 259 261 262 263 265 266 267 268 271
257 256 254 252 251 249 248 246 245 244 242 242 241 240 240 241 241 240 240 241 242 243 243 245 248 250 251 253 255 256 256 257 258 259 260 261 262 264 265 266 268 269 271
258 255 253 252 250 248 247 245 245 243 242 241 241 241 241 241 240 240 240 240 241 241 243 244 247 250 251 252 254 256 257 258 260 260 260 261 263 264 266 267 268 269 271
259 255 253 250 249 247 245 244 244 244 243 242 241 241 241 240 240 239 239 239 239 240 241 244 246 248 250 252 253 255 257 258 259 259 259 261 262 264 266 268 270 270 271
259 255 254 250 248 246 245 244 243 242 241 240 241 241 240 239 239 239 240 239 239 240 241 243 245 247 249 251 252 254 256 258 260 260 261 262 264 265 266 268 270 271 271
261 258 256 251 248 246 245 244 243 241 240 240 239 239 239 239 238 238 239 239 239 239 241 243 244 246 248 250 251 253 256 258 260 262 263 264 266 266 266 268 269 271 272
Height
5862 5863 5864 5866 5867 5869 5870 5871 5872 5873 5874 5876 5877 5877 5878 5879 5879 5879 5880 5880 5881 5881 5881 5881 5881 5881 5881 5881 5881 5881 5882 5882 5882 5882 5882 5882 5881 5881 5881 5880 5880 5879 5878
5858 5859 5861 5862 5864 5865 5866 5868 5869 5870 5872 5873 5874 5875 5876 5877 5877 5878 5878 5879 5879 5879 5880 5880 5880 5880 5880 5880 5881 5881 5881 5881 5881 5881 5881 5881 5881 5880 5880 5880 5879 5878 5877
5854 5855 5857 5858 5860 5861 5863 5864 5866 5867 5868 5870 5871 5872 5873 5874 5875 5876 5876 5877 5877 5878 5878 5878 5879 5879 5879 5879 5879 5880 5880 5880 5880 5880 5880 5880 5880 5879 5879 5879 5878 5877 5877
5849 5851 5853 5854 5856 5857 5859 5860 5862 5863 5865 5866 5867 5869 5870 5871 5872 5873 5874 5874 5875 5876 5876 5877 5877 5877 5878 5878 5878 5878 5878 5878 5878 5879 5879 5878 5878 5878 5878 5878 5877 5876 5876
5844 5846 5848 5850 5852 5853 5855 5856 5858 5859 5861 5862 5864 5865 5867 5868 5869 5870 5871 5872 5873 5873 5874 5875 5875 5875 5876 5876 5876 5876 5877 5877 5877 5877 5877 5877 5877 5877 5876 5876 5876 5875 5874
5839 5841 5843 5845 5847 5848 5850 5852 5854 5855 5857 5858 5860 5861 5863 5864 5866 5867 5868 5869 5870 5870 5871 5872 5873 5873 5874 5874 5874 5874 5875 5875 5875 5875 5875 5875 5875 5875 5875 5874 5874 5873 5873
5833 5835 5837 5839 5841 5843 5845 5847 5849 5850 5852 5854 5855 5857 5858 5860 5862 5863 5864 5865 5866 5867 5868 5869 5870 5870 5871 5871 5872 5872 5872 5872 5872 5872 5873 5873 5873 5873 5872 5872 5872 5871 5871
5826 5829 5831 5833 5835 5837 5839 5841 5843 5845 5847 5849 5850 5852 5854 5855 5857 5859 5860 5862 5863 5864 5865 5866 5866 5867 5868 5868 5869 5869 5870 5870 5870 5870 5870 5870 5870 5870 5870 5870 5869 5869 5868
5819 5822 5824 5827 5829 5831 5833 5835 5837 5839 5841 5843 5845 5847 5848 5850 5852 5854 5856 5857 5858 5860 5861 5862 5863 5864 5864 5865 5865 5866 5866 5867 5867 5867 5867 5867 5867 5867 5867 5867 5866 5866 5865
5811 5814 5817 5819 5822 5824 5826 5829 5831 5833 5835 5837 5839 5841 5843 5844 5846 5848 5850 5852 5853 5855 5856 5857 5859 5860 5860 5861 5862 5862 5863 5863 5863 5864 5864 5864 5864 5864 5864 5863 5863 5863 5862
5803 5806 5808 5811 5814 5816 5819 5822 5824 5826 5828 5830 5832 5834 5836 5838 5840 5842 5845 5846 5848 5850 5851 5853 5854 5855 5856 5857 5857 5858 5859 5859 5860 5860 5860 5860 5861 5860 5860 5860 5860 5859 5858
5794 5797 5800 5802 5805 5808 5811 5813 5816 5818 5821 5823 5826 5828 5830 5832 5834 5836 5838 5840 5842 5844 5846 5847 5848 5850 5851 5852 5853 5854 5854 5855 5856 5856 5856 5856 5857 5857 5856 5856 5856 5855 5855
5785 5787 5790 5793 5796 5798 5801 5804 5807 5810 5813 5816 5818 5820 5823 5825 5827 5830 5832 5834 5836 5838 5840 5841 5843 5844 5846 5847 5848 5849 5850 5850 5851 5851 5852 5852 5852 5852 5852 5852 5852 5851 5850
5775 5778 5780 5783 5786 5788 5791 5795 5798 5801 5804 5808 5811 5813 5815 5818 5820 5823 5825 5827 5829 5831 5833 5835 5837 5838 5840 5841 5842 5844 5845 5845 5846 5846 5847 5847 5847 5847 5847 5847 5847 5846 5846
5765 5767 5770 5772 5775 5778 5781 5784 5788 5791 5795 5799 5802 5805 5807 5810 5813 5815 5818 5820 5822 5824 5826 5828 5830 5832 5833 5835 5836 5838 5839 5840 5840 5841 5841 5842 5842 5842 5842 5842 5841 5841 5841
5753 5756 5758 5761 5764 5767 5769 5773 5777 5781 5785 5789 5792 5795 5798 5801 5804 5807 5810 5812 5815 5817 5819 5821 5823 5825 5826 5828 5830 5831 5832 5833 5834 5835 5836 5836 5836 5836 5836 5836 5836 5836 5835
5741 5744 5746 5749 5752 5755 5758 5761 5765 5770 5774 5778 5782 5785 5789 5792 5795 5799 5801 5804 5807 5809 5811 5813 5815 5817 5819 5821 5823 5824 5826 5826 5827 5828 5829 5830 5830 5830 5830 5830 5830 5830 5829
5729 5732 5734 5737 5740 5743 5746 5749 5754 5758 5763 5767 5771 5775 5779 5782 5786 5789 5792 5795 5798 5800 5803 5805 5807 5809 5811 5813 5815 5817 5818 5819 5820 5821 5822 5823 5823 5823 5824 5824 5823 5823 5823
5716 5719 5721 5724 5727 5730 5733 5737 5742 5746 5751 5756 5760 5764 5768 5771 5775 5779 5783 5786 5789 5791 5794 5797 5799 5801 5803 5805 5807 5808 5810 5812 5813 5814 5815 5815 5816 5816 5816 5817 5816 5816 5816
5703 5706 5708 5711 5714 5717 5720 5724 5729 5734 5738 5743 5748 5752 5756 5760 5764 5768 5772 5776 5779 5782 5785 5788 5790 5792 5794 5796 5798 5799 5801 5803 5804 5806 5807 5807 5808 5808 5808 5809 5809 5809 5808
5689 5692 5695 5698 5700 5703 5707 5711 5716 5721 5725 5730 5735 5740 5744 5749 5753 5757 5761 5765 5769 5773 5776 5778 5781 5783 5785 5787 5788 5790 5792 5794 5796 5797 5798 5799 5800 5800 5800 5800 5800 5800 5800
5676 5678 5680 5683 5686 5689 5693 5698 5702 5707 5711 5716 5721 5726 5731 5736 5741 5745 5750 5754 5758 5762 5766 5768 5771 5773 5775 5777 5779 5781 5783 5785 5787 5788 5789 5790 5791 5791 5792 5792 5792 5792 5791
5663 5664 5666 5668 5671 5675 5679 5683 5688 5692 5697 5703 5708 5713 5718 5723 5728 5733 5738 5743 5747 5751 5755 5758 5761 5764 5766 5767 5769 5771 5773 5776 5778 5779 5780 5781 5782 5782 5783 5783 5782 5782 5782
5650 5651 5653 5655 5657 5660 5664 5669 5674 5679 5685 5690 5694 5699 5704 5709 5715 5720 5725 5731 5735 5739 5744 5748 5751 5753 5755 5757 5759 5761 5764 5766 5767 5769 5771 5771 5772 5772 5773 5773 5773 5772 5772
5639 5640 5641 5643 5645 5648 5651 5655 5660 5665 5670 5675 5680 5685 5690 5696 5701 5707 5713 5718 5723 5728 5732 5737 5740 5743 5745 5747 5749 5751 5753 5755 5757 5759 5761 5761 5761 5762 5762 5762 5762 5762 5762
5630 5630 5631 5632 5634 5637 5640 5643 5648 5652 5657 5662 5666 5671 5677 5682 5688 5694 5700 5706 5711 5716 5721 5725 5729 5732 5735 5737 5739 5740 5743 5744 5747 5748 5749 5750 5751 5752 5751 5752 5752 5752 5751